Location: *
(35.8942°N, 23.3025°E)
Time: 23:42:41
(UTC+00:00)

SL-8 R/B - Pass Details

Date: 21 September 2021
Orbit: 656 x 667 km, 48.4° (Epoch: 22 October)

Event Time Altitude Azimuth Distance (km) Brightness Sun altitude
Exits shadow 03:42:14 - 260° (W) 2,182 5.7 -7.2°
Reaches altitude 10° 03:42:31 10° 261° (W) 2,084 5.6 -7.2°
Maximum altitude 03:47:04 41° 332° (NNW) 964 4.4 -6.3°
Drops below altitude 10° 03:51:37 10° 43° (NE) 2,087 7.1 -5.4°
Sets 03:54:06 0° 51° (NE) 3,000 8.1 -4.9°
